Dublin, Ireland

1:03 AM GMT on February 28, 2017 (GMT +0000)
Dublin Airport

Weather History for EIDW - September, 2013

Change the Weather History Date:

Sunday, September 15, 2013

  Actual Average Record
Temperature  
Mean Temperature 54 °F -  
Max Temperature 62 °F 60 °F 73 °F (2003)
Min Temperature 46 °F 48 °F 41 °F (2002)
Degree Days  
Heating Degree Days 11    
Growing Degree Days 4 (Base 50)    
Moisture  
Dew Point 46 °F    
Average Humidity 75    
Maximum Humidity 94    
Minimum Humidity 44    
Precipitation  
Precipitation 0.08 in 0.09 in - ()
Sea Level Pressure  
Sea Level Pressure 29.64 in    
Wind  
Wind Speed 17 mph ()    
Max Wind Speed 34 mph    
Max Gust Speed 48 mph    
Visibility 6.6 miles    
Events Rain    
Averages and records for this station are not official NWS values.
T = Trace of Precipitation, MM = Missing Value Source: Averaged Metar Reports

Daily Weather History Graph

Daily Weather History Graph

Search for Another Location

Airport or City:

Trip Planner

Search our weather history database for the weather conditions in past years. The results will help you decide how hot, cold, wet, or windy it might be!

Date:

Astronomy

Sep. 15, 2013 Rise Set
Actual Time 6:58 AM IST 7:40 PM IST
Civil Twilight 6:23 AM IST 8:15 PM IST
Nautical Twilight 5:41 AM IST 8:57 PM IST
Astronomical Twilight 4:55 AM IST 9:42 PM IST
Moon 5:23 PM IST (9/15) 1:49 AM IST (9/15)
Length of Visible Light 13h 52m
Length of Day
12h 41m
Waxing Gibbous, 80% of the Moon is Illuminated
Sep 15
Waxing Gibbous
Sep 19
Full
Sep 27
Last Quarter
Oct 5
New
Oct 12
First Quarter

Hourly Weather History & Observations

Time (IST) Temp. Windchill Dew Point Humidity Pressure Visibility Wind Dir Wind Speed Gust Speed Precip Events Conditions
12:00 AM 50.0 °F - 42.8 °F 76% 30.04 in 6.2 mi SSW 6.9 mph - N/A   Mostly Cloudy
12:30 AM 51.8 °F - 42.8 °F 71% 30.01 in 6.2 mi SSW 5.8 mph - N/A   Mostly Cloudy
1:00 AM 51 °F - 44 °F 70% 30.01 in 19 mi SSW 8.9 mph - -   Overcast
1:00 AM 51.8 °F - 44.6 °F 76% 30.01 in 6.2 mi SSW 8.1 mph - N/A   Mostly Cloudy
1:30 AM 51.8 °F - 46.4 °F 82% 29.98 in 6.2 mi SSW 6.9 mph - N/A   Mostly Cloudy
2:00 AM 53.6 °F - 46.4 °F 77% 29.95 in 6.2 mi SSW 9.2 mph - N/A   Mostly Cloudy
2:30 AM 53.6 °F - 46.4 °F 77% 29.95 in 6.2 mi SW 11.5 mph - N/A   Mostly Cloudy
3:00 AM 53.6 °F - 46.4 °F 77% 29.92 in 6.2 mi SW 15.0 mph - N/A   Mostly Cloudy
3:30 AM 53.6 °F - 46.4 °F 77% 29.89 in 6.2 mi SW 11.5 mph - N/A Rain Light Rain
4:00 AM 53.6 °F - 46.4 °F 77% 29.86 in 6.2 mi SW 20.7 mph - N/A Rain Light Rain
4:30 AM 53.6 °F - 46.4 °F 77% 29.83 in 6.2 mi SW 17.3 mph - N/A Rain Light Rain
5:00 AM 51.8 °F - 46.4 °F 82% 29.80 in 6.2 mi SW 19.6 mph 31.1 mph N/A   Mostly Cloudy
5:30 AM 53.6 °F - 44.6 °F 72% 29.74 in 6.2 mi SSW 15.0 mph 26.5 mph N/A   Mostly Cloudy
6:00 AM 55.4 °F - 48.2 °F 77% 29.74 in 6.2 mi SSW 17.3 mph - N/A   Mostly Cloudy
6:30 AM 53.6 °F - 50.0 °F 88% 29.68 in 6.2 mi SW 20.7 mph - N/A Rain Light Rain
7:00 AM 55 °F - 50 °F 77% 29.67 in 16 mi SW 24.6 mph - - Rain Light Rain
7:00 AM 55.4 °F - 50.0 °F 82% 29.65 in 6.2 mi SW 25.3 mph 38.0 mph N/A   Mostly Cloudy
7:30 AM 57.2 °F - 50.0 °F 77% 29.62 in 6.2 mi SW 26.5 mph 39.1 mph N/A   Mostly Cloudy
8:00 AM 57.2 °F - 51.8 °F 82% 29.62 in 6.2 mi SW 26.5 mph 41.4 mph N/A   Mostly Cloudy
8:30 AM 57.2 °F - 53.6 °F 88% 29.59 in 6.2 mi SW 24.2 mph - N/A   Mostly Cloudy
9:00 AM 59.0 °F - 53.6 °F 82% 29.56 in 6.2 mi SW 26.5 mph 39.1 mph N/A   Mostly Cloudy
9:30 AM 59.0 °F - 55.4 °F 88% 29.53 in 6.2 mi SW 25.3 mph 38.0 mph N/A   Light Drizzle
10:00 AM 59.0 °F - 55.4 °F 88% 29.53 in 6.2 mi SW 25.3 mph - N/A Rain Light Rain
10:30 AM 59.0 °F - 57.2 °F 94% 29.50 in 6.2 mi SW 24.2 mph 35.7 mph N/A Rain Light Rain
11:00 AM 60.8 °F - 57.2 °F 88% 29.47 in 6.2 mi SW 24.2 mph 35.7 mph N/A   Light Drizzle
11:30 AM 60.8 °F - 59.0 °F 94% 29.44 in 6.2 mi WSW 26.5 mph 40.3 mph N/A Rain Light Rain
12:00 PM 60.8 °F - 59.0 °F 94% 29.44 in 4.3 mi WSW 32.2 mph 43.7 mph N/A Rain Light Rain
12:30 PM 62.6 °F - 57.2 °F 82% 29.44 in 6.2 mi West 34.5 mph 46.0 mph N/A   Mostly Cloudy
1:00 PM 59 °F - 58 °F 94% 29.49 in 6 mi West 29.1 mph - - Rain Light Rain Showers
1:00 PM 59.0 °F - 57.2 °F 94% 29.47 in 6.2 mi West 28.8 mph 42.6 mph N/A Rain Light Rain Showers
1:30 PM 60.8 °F - 55.4 °F 82% 29.47 in 6.2 mi West 29.9 mph - N/A Rain Light Rain Showers
2:00 PM 59.0 °F - 48.2 °F 67% 29.50 in 6.2 mi WNW 34.5 mph 47.2 mph N/A   Mostly Cloudy
2:30 PM 57.2 °F - 48.2 °F 72% 29.50 in 6.2 mi West 34.5 mph 48.3 mph N/A   Mostly Cloudy
3:00 PM 59.0 °F - 48.2 °F 67% 29.50 in 6.2 mi WNW 28.8 mph - N/A   Scattered Clouds
3:30 PM 59.0 °F - 42.8 °F 55% 29.50 in 6.2 mi West 33.4 mph - N/A   Scattered Clouds
4:00 PM 57.2 °F - 41.0 °F 55% 29.50 in 6.2 mi WNW 29.9 mph 43.7 mph N/A   Partly Cloudy
4:30 PM 57.2 °F - 41.0 °F 55% 29.53 in 6.2 mi West 28.8 mph 40.3 mph N/A   Partly Cloudy
5:00 PM 57.2 °F - 37.4 °F 48% 29.53 in 6.2 mi West 28.8 mph - N/A   Partly Cloudy
5:30 PM 55.4 °F - 33.8 °F 44% 29.53 in 6.2 mi West 28.8 mph - N/A   Partly Cloudy
6:00 PM 53.6 °F - 35.6 °F 51% 29.53 in 6.2 mi West 29.9 mph 41.4 mph N/A   Partly Cloudy
6:30 PM 51.8 °F - 37.4 °F 58% 29.56 in 6.2 mi West 28.8 mph - N/A   Partly Cloudy
7:00 PM 51 °F - 39 °F 53% 29.58 in 31 mi West 20.1 mph - -   Partly Cloudy
7:00 PM 51.8 °F - 37.4 °F 58% 29.56 in 6.2 mi West 21.9 mph - N/A   Scattered Clouds
7:30 PM 50.0 °F - 39.2 °F 66% 29.56 in 6.2 mi WNW 21.9 mph - N/A   Mostly Cloudy
8:00 PM 46.4 °F 37.7 °F 41.0 °F 81% 29.56 in 6.2 mi West 26.5 mph 40.3 mph N/A Rain Light Rain Showers
8:30 PM 46.4 °F 38.7 °F 39.2 °F 76% 29.59 in 6.2 mi West 20.7 mph - N/A   Scattered Clouds
9:00 PM 46.4 °F 38.5 °F 41.0 °F 81% 29.56 in 6.2 mi West 21.9 mph 33.4 mph N/A   Scattered Clouds
9:30 PM 46.4 °F 38.5 °F 39.2 °F 76% 29.59 in 6.2 mi West 21.9 mph - N/A   Scattered Clouds
10:00 PM 46.4 °F 38.5 °F 39.2 °F 76% 29.56 in 6.2 mi West 21.9 mph - N/A   Scattered Clouds
10:30 PM 46.4 °F 37.4 °F 39.2 °F 76% 29.56 in 6.2 mi West 28.8 mph - N/A   Scattered Clouds
11:00 PM 46.4 °F 38.5 °F 39.2 °F 76% 29.56 in 6.2 mi WSW 21.9 mph - N/A   Partly Cloudy
11:30 PM 46.4 °F 38.7 °F 41.0 °F 81% 29.56 in 6.2 mi WSW 20.7 mph - N/A   Scattered Clouds